TimeEST,TemperatureF,Dew PointF,Humidity,Sea Level PressureIn,VisibilityMPH,Wind Direction,Wind SpeedMPH,Gust SpeedMPH,PrecipitationIn,Events,Conditions,WindDirDegrees,DateUTC
12:51 AM,28.0,23.0,81,30.45,10.0,Calm,Calm,-,N/A,,Mostly Cloudy,0,2013-11-20 05:51:00
1:51 AM,27.0,23.0,85,30.45,10.0,Calm,Calm,-,N/A,,Clear,0,2013-11-20 06:51:00
2:51 AM,27.0,21.9,81,30.46,10.0,Calm,Calm,-,N/A,,Clear,0,2013-11-20 07:51:00
3:51 AM,30.0,21.9,72,30.48,10.0,Calm,Calm,-,N/A,,Clear,0,2013-11-20 08:51:00
4:51 AM,28.0,21.0,75,30.48,10.0,East,3.5,-,N/A,,Clear,100,2013-11-20 09:51:00
5:51 AM,27.0,19.9,75,30.48,10.0,East,4.6,-,N/A,,Clear,100,2013-11-20 10:51:00
6:51 AM,25.0,19.0,78,30.50,10.0,ENE,5.8,-,N/A,,Clear,70,2013-11-20 11:51:00
7:51 AM,26.1,19.9,78,30.51,10.0,Calm,Calm,-,N/A,,Clear,0,2013-11-20 12:51:00
8:51 AM,30.9,21.9,69,30.51,10.0,ENE,5.8,-,N/A,,Clear,70,2013-11-20 13:51:00
9:51 AM,36.0,19.9,52,30.50,10.0,SSE,3.5,-,N/A,,Clear,160,2013-11-20 14:51:00
10:51 AM,39.9,18.0,41,30.49,10.0,SSW,3.5,-,N/A,,Clear,200,2013-11-20 15:51:00
11:51 AM,44.1,17.1,34,30.47,10.0,SSE,3.5,-,N/A,,Clear,150,2013-11-20 16:51:00
12:51 PM,46.9,10.0,22,30.43,10.0,SSE,9.2,20.7,N/A,,Clear,150,2013-11-20 17:51:00
1:51 PM,48.9,10.0,21,30.40,10.0,SE,9.2,-,N/A,,Clear,140,2013-11-20 18:51:00
2:51 PM,48.0,8.1,20,30.39,10.0,South,13.8,19.6,N/A,,Clear,180,2013-11-20 19:51:00
3:51 PM,46.9,9.0,21,30.39,10.0,ESE,8.1,-,N/A,,Clear,120,2013-11-20 20:51:00
4:51 PM,44.1,10.9,26,30.39,10.0,SE,6.9,-,N/A,,Clear,130,2013-11-20 21:51:00
5:51 PM,43.0,10.9,27,30.38,10.0,SE,11.5,-,N/A,,Clear,130,2013-11-20 22:51:00
6:51 PM,42.1,12.0,29,30.38,10.0,SE,12.7,19.6,N/A,,Clear,140,2013-11-20 23:51:00
7:51 PM,41.0,10.0,28,30.38,10.0,SSE,12.7,23.0,N/A,,Clear,150,2013-11-21 00:51:00
8:51 PM,39.9,10.9,31,30.36,10.0,SSE,18.4,27.6,N/A,,Clear,150,2013-11-21 01:51:00
9:51 PM,39.0,12.0,33,30.35,10.0,SSE,17.3,26.5,N/A,,Clear,150,2013-11-21 02:51:00
10:51 PM,39.0,12.0,33,30.35,10.0,SSE,18.4,26.5,N/A,,Clear,160,2013-11-21 03:51:00
11:51 PM,37.9,12.9,36,30.35,10.0,SSE,19.6,25.3,N/A,,Clear,160,2013-11-21 04:51:00